TimeMST,TemperatureF,Dew PointF,Humidity,Sea Level PressureIn,VisibilityMPH,Wind Direction,Wind SpeedMPH,Gust SpeedMPH,PrecipitationIn,Events,Conditions,WindDirDegrees,DateUTC
12:10 AM,8.6,3.2,79,30.06,10.0,NW,4.6,-,N/A,,Overcast,310,2014-01-08 07:10:00
12:29 AM,10.4,3.2,73,30.05,10.0,WNW,4.6,-,N/A,,Overcast,300,2014-01-08 07:29:00
12:48 AM,10.4,5.0,79,30.06,10.0,ESE,6.9,-,N/A,,Overcast,110,2014-01-08 07:48:00
1:09 AM,10.4,3.2,73,30.06,10.0,SSE,5.8,-,N/A,,Overcast,150,2014-01-08 08:09:00
1:31 AM,10.4,3.2,73,30.06,10.0,Calm,Calm,-,N/A,,Overcast,0,2014-01-08 08:31:00
1:51 AM,10.4,5.0,79,30.07,10.0,Calm,Calm,-,N/A,,Overcast,0,2014-01-08 08:51:00
2:09 AM,12.2,5.0,73,30.06,10.0,Calm,Calm,-,N/A,,Overcast,0,2014-01-08 09:09:00
2:30 AM,12.2,6.8,79,30.07,10.0,Calm,Calm,-,N/A,,Overcast,0,2014-01-08 09:30:00
2:47 AM,12.2,6.8,79,30.07,10.0,Calm,Calm,-,N/A,,Overcast,0,2014-01-08 09:47:00
3:12 AM,12.2,6.8,79,30.07,10.0,Calm,Calm,-,N/A,,Overcast,0,2014-01-08 10:12:00
3:29 AM,12.2,6.8,79,30.07,10.0,ESE,5.8,-,N/A,,Overcast,120,2014-01-08 10:29:00
3:52 AM,12.2,6.8,79,30.08,10.0,ESE,6.9,-,N/A,,Overcast,120,2014-01-08 10:52:00
4:12 AM,12.2,5.0,73,30.08,10.0,SE,5.8,-,N/A,,Overcast,130,2014-01-08 11:12:00
4:29 AM,12.2,5.0,73,30.07,10.0,ENE,3.5,-,N/A,,Overcast,70,2014-01-08 11:29:00
4:52 AM,12.2,5.0,73,30.07,10.0,East,4.6,-,N/A,,Overcast,80,2014-01-08 11:52:00
5:11 AM,12.2,6.8,79,30.06,10.0,Calm,Calm,-,N/A,,Overcast,0,2014-01-08 12:11:00
5:29 AM,12.2,5.0,73,30.06,10.0,Calm,Calm,-,N/A,,Overcast,0,2014-01-08 12:29:00
5:49 AM,12.2,6.8,79,30.06,10.0,ESE,3.5,-,N/A,,Overcast,120,2014-01-08 12:49:00
6:10 AM,12.2,6.8,79,30.07,10.0,Calm,Calm,-,N/A,,Overcast,0,2014-01-08 13:10:00
6:29 AM,12.2,5.0,73,30.07,10.0,Calm,Calm,-,N/A,,Overcast,0,2014-01-08 13:29:00
6:49 AM,12.2,5.0,73,30.08,10.0,Calm,Calm,-,N/A,,Overcast,0,2014-01-08 13:49:00
7:12 AM,12.2,5.0,73,30.09,10.0,Calm,Calm,-,N/A,,Overcast,0,2014-01-08 14:12:00
7:32 AM,12.2,5.0,73,30.09,10.0,Calm,Calm,-,N/A,,Overcast,0,2014-01-08 14:32:00
7:49 AM,12.2,5.0,73,30.10,10.0,Calm,Calm,-,N/A,,Overcast,0,2014-01-08 14:49:00
8:10 AM,14.0,5.0,67,30.10,10.0,NW,3.5,-,N/A,,Overcast,310,2014-01-08 15:10:00
8:29 AM,14.0,6.8,73,30.10,10.0,NW,4.6,-,N/A,,Overcast,310,2014-01-08 15:29:00
8:49 AM,15.8,5.0,62,30.11,10.0,Calm,Calm,-,N/A,,Overcast,0,2014-01-08 15:49:00
9:10 AM,17.6,6.8,63,30.10,10.0,Calm,Calm,-,N/A,,Mostly Cloudy,0,2014-01-08 16:10:00
9:29 AM,15.8,6.8,68,30.10,10.0,West,3.5,-,N/A,,Mostly Cloudy,280,2014-01-08 16:29:00
9:49 AM,17.6,8.6,68,30.10,10.0,ENE,3.5,-,N/A,,Scattered Clouds,70,2014-01-08 16:49:00
10:12 AM,19.4,8.6,63,30.10,10.0,Calm,Calm,-,N/A,,Clear,0,2014-01-08 17:12:00
10:29 AM,19.4,8.6,63,30.10,10.0,SE,3.5,-,N/A,,Clear,130,2014-01-08 17:29:00
10:49 AM,19.4,8.6,63,30.10,10.0,Calm,Calm,-,N/A,,Clear,0,2014-01-08 17:49:00
11:10 AM,19.4,6.8,58,30.09,10.0,SE,4.6,-,N/A,,Clear,130,2014-01-08 18:10:00
11:31 AM,19.4,8.6,63,30.08,10.0,South,3.5,-,N/A,,Mostly Cloudy,170,2014-01-08 18:31:00
11:49 AM,19.4,8.6,63,30.07,10.0,ESE,3.5,-,N/A,,Mostly Cloudy,120,2014-01-08 18:49:00
12:10 PM,19.4,8.6,63,30.06,10.0,ESE,3.5,-,N/A,,Mostly Cloudy,110,2014-01-08 19:10:00
12:29 PM,21.2,8.6,58,30.05,10.0,Calm,Calm,-,N/A,,Overcast,0,2014-01-08 19:29:00
12:52 PM,21.2,10.4,63,30.04,10.0,SE,4.6,-,N/A,,Overcast,130,2014-01-08 19:52:00
1:09 PM,21.2,8.6,58,30.03,10.0,SSE,4.6,-,N/A,,Mostly Cloudy,160,2014-01-08 20:09:00
1:30 PM,21.2,8.6,58,30.03,10.0,SSE,4.6,-,N/A,,Scattered Clouds,160,2014-01-08 20:30:00
1:52 PM,23.0,10.4,59,30.03,10.0,SSE,3.5,-,N/A,,Overcast,150,2014-01-08 20:52:00
2:12 PM,21.2,8.6,58,30.03,10.0,SE,3.5,-,N/A,,Overcast,130,2014-01-08 21:12:00
2:30 PM,21.2,10.4,63,30.03,10.0,Calm,Calm,-,N/A,,Overcast,0,2014-01-08 21:30:00
2:50 PM,23.0,10.4,59,30.03,10.0,Calm,Calm,-,N/A,,Overcast,0,2014-01-08 21:50:00
3:08 PM,23.0,10.4,59,30.03,10.0,Calm,Calm,-,N/A,,Mostly Cloudy,0,2014-01-08 22:08:00
3:29 PM,23.0,12.2,63,30.04,10.0,SE,4.6,-,N/A,,Scattered Clouds,130,2014-01-08 22:29:00
3:48 PM,21.2,12.2,68,30.05,10.0,ESE,5.8,-,N/A,,Clear,120,2014-01-08 22:48:00
4:12 PM,19.4,12.2,74,30.05,10.0,Calm,Calm,-,N/A,,Mostly Cloudy,0,2014-01-08 23:12:00
4:29 PM,17.6,10.4,73,30.06,10.0,Calm,Calm,-,N/A,,Mostly Cloudy,0,2014-01-08 23:29:00
4:49 PM,17.6,10.4,73,30.05,10.0,Calm,Calm,-,N/A,,Overcast,0,2014-01-08 23:49:00
5:09 PM,15.8,10.4,79,30.06,10.0,Calm,Calm,-,N/A,,Overcast,0,2014-01-09 00:09:00
5:29 PM,15.8,10.4,79,30.07,10.0,WNW,3.5,-,N/A,,Overcast,290,2014-01-09 00:29:00
5:49 PM,15.8,10.4,79,30.07,10.0,NW,3.5,-,N/A,,Overcast,320,2014-01-09 00:49:00
6:09 PM,15.8,10.4,79,30.07,10.0,Calm,Calm,-,N/A,,Overcast,0,2014-01-09 01:09:00
6:29 PM,17.6,10.4,73,30.07,10.0,Calm,Calm,-,N/A,,Mostly Cloudy,0,2014-01-09 01:29:00
6:48 PM,15.8,10.4,79,30.08,10.0,SE,5.8,-,N/A,,Overcast,130,2014-01-09 01:48:00
7:12 PM,15.8,10.4,79,30.09,10.0,East,3.5,-,N/A,,Overcast,90,2014-01-09 02:12:00
7:29 PM,17.6,12.2,79,30.09,7.0,Calm,Calm,-,N/A,,Overcast,0,2014-01-09 02:29:00
7:50 PM,17.6,14.0,86,30.09,5.0,North,4.6,-,N/A,Snow,Light Snow,360,2014-01-09 02:50:00
8:07 PM,17.6,14.0,86,30.09,4.0,NW,4.6,-,N/A,Snow,Light Snow,320,2014-01-09 03:07:00
8:29 PM,15.8,14.0,93,30.09,2.0,WNW,4.6,-,N/A,Snow,Light Snow,290,2014-01-09 03:29:00
8:49 PM,17.6,14.0,86,30.09,1.8,Calm,Calm,-,N/A,Snow,Light Snow,0,2014-01-09 03:49:00
9:08 PM,17.6,15.8,93,30.09,2.5,North,3.5,-,N/A,Snow,Light Snow,360,2014-01-09 04:08:00
9:29 PM,17.6,15.8,93,30.08,4.0,WNW,4.6,-,N/A,Snow,Light Snow,300,2014-01-09 04:29:00
9:52 PM,17.6,15.8,93,30.08,4.0,NW,3.5,-,N/A,Snow,Light Snow,310,2014-01-09 04:52:00
10:11 PM,15.8,14.0,93,30.08,5.0,WNW,4.6,-,N/A,Snow,Light Snow,300,2014-01-09 05:11:00
10:31 PM,15.8,14.0,93,30.08,10.0,NNW,4.6,-,N/A,,Scattered Clouds,330,2014-01-09 05:31:00
10:49 PM,15.8,14.0,93,30.07,10.0,NW,5.8,-,N/A,,Mostly Cloudy,310,2014-01-09 05:49:00
11:09 PM,14.0,12.2,93,30.07,10.0,Calm,Calm,-,N/A,,Mostly Cloudy,0,2014-01-09 06:09:00
11:30 PM,10.4,6.8,85,30.07,10.0,North,5.8,-,N/A,,Scattered Clouds,360,2014-01-09 06:30:00
11:52 PM,12.2,10.4,92,30.07,10.0,WNW,4.6,-,N/A,,Clear,300,2014-01-09 06:52:00